Time,TemperatureF,DewpointF,PressureIn,WindDirection,WindDirectionDegrees,WindSpeedMPH,WindSpeedGustMPH,Humidity,HourlyPrecipIn,Conditions,Clouds,dailyrainin,SoftwareType,DateUTC
2013-12-16 00:05:00,39.4,31.6,29.91,North,-999,-999.0,-999.0,73,0.00,,,0.00,HomebrewedOnLinux,2013-12-16 05:05:00,
2013-12-16 00:10:00,39.4,31.8,29.91,North,-999,-999.0,-999.0,74,0.00,,,0.00,HomebrewedOnLinux,2013-12-16 05:10:00,
2013-12-16 00:15:00,39.4,31.8,29.91,North,-999,-999.0,-999.0,74,0.00,,,0.00,HomebrewedOnLinux,2013-12-16 05:15:00,
2013-12-16 00:20:00,39.4,32.0,29.91,North,-999,-999.0,-999.0,75,0.00,,,0.00,HomebrewedOnLinux,2013-12-16 05:20:00,
2013-12-16 00:25:00,39.2,32.0,29.91,North,-999,-999.0,-999.0,75,0.00,,,0.00,HomebrewedOnLinux,2013-12-16 05:25:00,
2013-12-16 00:30:00,39.2,32.1,29.91,North,-999,-999.0,-999.0,75,0.00,,,0.00,HomebrewedOnLinux,2013-12-16 05:30:00,
2013-12-16 00:35:00,39.0,32.1,29.91,North,-999,-999.0,-999.0,76,0.00,,,0.00,HomebrewedOnLinux,2013-12-16 05:35:00,
2013-12-16 00:40:00,38.7,31.8,29.91,North,-999,-999.0,-999.0,76,0.00,,,0.00,HomebrewedOnLinux,2013-12-16 05:40:00,
2013-12-16 00:45:00,38.7,31.8,29.91,North,-999,-999.0,-999.0,76,0.00,,,0.00,HomebrewedOnLinux,2013-12-16 05:45:00,
2013-12-16 00:50:00,38.7,32.1,29.91,North,-999,-999.0,-999.0,77,0.00,,,0.00,HomebrewedOnLinux,2013-12-16 05:50:00,
2013-12-16 00:55:00,38.5,31.9,29.91,North,-999,-999.0,-999.0,77,0.00,,,0.00,HomebrewedOnLinux,2013-12-16 05:55:00,
2013-12-16 01:00:00,38.3,31.7,29.91,North,-999,-999.0,-999.0,77,0.00,,,0.00,HomebrewedOnLinux,2013-12-16 06:00:00,
2013-12-16 09:35:00,41.0,33.8,30.00,North,-999,-999.0,-999.0,75,0.00,,,0.00,HomebrewedOnLinux,2013-12-16 14:35:00,
2013-12-16 09:40:00,41.5,34.1,30.00,North,-999,-999.0,-999.0,75,0.00,,,0.00,HomebrewedOnLinux,2013-12-16 14:40:00,
2013-12-16 09:45:00,42.1,34.7,30.00,North,-999,-999.0,-999.0,75,0.00,,,0.00,HomebrewedOnLinux,2013-12-16 14:45:00,
2013-12-16 09:50:00,42.4,34.5,30.00,North,-999,-999.0,-999.0,73,0.00,,,0.00,HomebrewedOnLinux,2013-12-16 14:50:00,
2013-12-16 09:55:00,42.6,34.2,30.03,North,-999,-999.0,-999.0,72,0.00,,,0.00,HomebrewedOnLinux,2013-12-16 14:55:00,
2013-12-16 10:00:00,43.2,34.6,30.03,North,-999,-999.0,-999.0,72,0.00,,,0.00,HomebrewedOnLinux,2013-12-16 15:00:00,
2013-12-16 10:05:00,43.5,34.8,30.03,North,-999,-999.0,-999.0,71,0.00,,,0.00,HomebrewedOnLinux,2013-12-16 15:05:00,
2013-12-16 10:10:00,44.1,35.3,30.00,North,-999,-999.0,-999.0,71,0.00,,,0.00,HomebrewedOnLinux,2013-12-16 15:10:00,
2013-12-16 10:15:00,44.1,34.8,30.00,North,-999,-999.0,-999.0,70,0.00,,,0.00,HomebrewedOnLinux,2013-12-16 15:15:00,
2013-12-16 10:20:00,44.6,35.4,30.00,North,-999,-999.0,-999.0,70,0.00,,,0.00,HomebrewedOnLinux,2013-12-16 15:20:00,
2013-12-16 10:25:00,44.8,35.2,30.00,North,-999,-999.0,-999.0,69,0.00,,,0.00,HomebrewedOnLinux,2013-12-16 15:25:00,
2013-12-16 10:35:00,45.7,36.1,30.00,North,-999,-999.0,-999.0,69,0.00,,,0.00,HomebrewedOnLinux,2013-12-16 15:35:00,
2013-12-16 10:40:00,46.0,36.4,30.00,North,-999,-999.0,-999.0,69,0.00,,,0.00,HomebrewedOnLinux,2013-12-16 15:40:00,
2013-12-16 10:45:00,46.4,36.3,30.00,North,-999,-999.0,-999.0,68,0.00,,,0.00,HomebrewedOnLinux,2013-12-16 15:45:00,
2013-12-16 10:50:00,46.8,36.4,30.00,North,-999,-999.0,-999.0,67,0.00,,,0.00,HomebrewedOnLinux,2013-12-16 15:50:00,
2013-12-16 10:55:00,47.3,36.8,30.00,North,-999,-999.0,-999.0,67,0.00,,,0.00,HomebrewedOnLinux,2013-12-16 15:55:00,
2013-12-16 11:00:00,47.8,37.1,30.00,North,-999,-999.0,-999.0,66,0.00,,,0.00,HomebrewedOnLinux,2013-12-16 16:00:00,
2013-12-16 11:05:00,48.2,37.3,30.00,North,-999,-999.0,-999.0,66,0.00,,,0.00,HomebrewedOnLinux,2013-12-16 16:05:00,
2013-12-16 11:10:00,48.7,37.4,30.00,North,-999,-999.0,-999.0,65,0.00,,,0.00,HomebrewedOnLinux,2013-12-16 16:10:00,
2013-12-16 11:15:00,49.3,38.1,30.00,North,-999,-999.0,-999.0,65,0.00,,,0.00,HomebrewedOnLinux,2013-12-16 16:15:00,
2013-12-16 11:25:00,50.2,38.3,30.00,North,-999,-999.0,-999.0,64,0.00,,,0.00,HomebrewedOnLinux,2013-12-16 16:25:00,
2013-12-16 11:30:00,50.4,38.2,30.00,North,-999,-999.0,-999.0,63,0.00,,,0.00,HomebrewedOnLinux,2013-12-16 16:30:00,
2013-12-16 11:35:00,50.7,38.4,30.00,North,-999,-999.0,-999.0,63,0.00,,,0.00,HomebrewedOnLinux,2013-12-16 16:35:00,
2013-12-16 11:40:00,50.7,38.2,29.97,North,-999,-999.0,-999.0,62,0.00,,,0.00,HomebrewedOnLinux,2013-12-16 16:40:00,
2013-12-16 11:45:00,50.9,38.2,29.97,North,-999,-999.0,-999.0,62,0.00,,,0.00,HomebrewedOnLinux,2013-12-16 16:45:00,
2013-12-16 11:50:00,51.1,38.2,29.97,North,-999,-999.0,-999.0,61,0.00,,,0.00,HomebrewedOnLinux,2013-12-16 16:50:00,
2013-12-16 11:55:00,51.1,37.7,29.97,North,-999,-999.0,-999.0,60,0.00,,,0.00,HomebrewedOnLinux,2013-12-16 16:55:00,
2013-12-16 12:00:00,51.4,38.2,29.97,North,-999,-999.0,-999.0,60,0.00,,,0.00,HomebrewedOnLinux,2013-12-16 17:00:00,
2013-12-16 12:05:00,51.6,37.9,29.97,North,-999,-999.0,-999.0,59,0.00,,,0.00,HomebrewedOnLinux,2013-12-16 17:05:00,
2013-12-16 12:10:00,52.0,37.8,29.94,North,-999,-999.0,-999.0,58,0.00,,,0.00,HomebrewedOnLinux,2013-12-16 17:10:00,
2013-12-16 12:15:00,52.5,37.7,29.94,North,-999,-999.0,-999.0,57,0.00,,,0.00,HomebrewedOnLinux,2013-12-16 17:15:00,
2013-12-16 12:20:00,52.9,37.9,29.94,North,-999,-999.0,-999.0,57,0.00,,,0.00,HomebrewedOnLinux,2013-12-16 17:20:00,
2013-12-16 12:25:00,53.1,37.7,29.97,North,-999,-999.0,-999.0,56,0.00,,,0.00,HomebrewedOnLinux,2013-12-16 17:25:00,
2013-12-16 12:30:00,53.2,37.7,29.97,North,-999,-999.0,-999.0,55,0.00,,,0.00,HomebrewedOnLinux,2013-12-16 17:30:00,
2013-12-16 12:35:00,53.4,38.1,29.97,North,-999,-999.0,-999.0,56,0.00,,,0.00,HomebrewedOnLinux,2013-12-16 17:35:00,
2013-12-16 12:40:00,54.0,38.3,29.94,North,-999,-999.0,-999.0,55,0.00,,,0.00,HomebrewedOnLinux,2013-12-16 17:40:00,
2013-12-16 12:45:00,54.1,38.3,29.94,North,-999,-999.0,-999.0,55,0.00,,,0.00,HomebrewedOnLinux,2013-12-16 17:45:00,
2013-12-16 12:50:00,54.5,38.4,29.94,North,-999,-999.0,-999.0,54,0.00,,,0.00,HomebrewedOnLinux,2013-12-16 17:50:00,
2013-12-16 12:55:00,55.2,38.5,29.94,North,-999,-999.0,-999.0,53,0.00,,,0.00,HomebrewedOnLinux,2013-12-16 17:55:00,
2013-12-16 13:05:00,55.9,37.9,29.94,North,-999,-999.0,-999.0,51,0.00,,,0.00,HomebrewedOnLinux,2013-12-16 18:05:00,
2013-12-16 13:10:00,56.1,37.9,29.94,North,-999,-999.0,-999.0,50,0.00,,,0.00,HomebrewedOnLinux,2013-12-16 18:10:00,
2013-12-16 13:15:00,56.3,38.7,29.94,North,-999,-999.0,-999.0,52,0.00,,,0.00,HomebrewedOnLinux,2013-12-16 18:15:00,
2013-12-16 13:20:00,56.5,38.1,29.94,North,-999,-999.0,-999.0,50,0.00,,,0.00,HomebrewedOnLinux,2013-12-16 18:20:00,
2013-12-16 13:25:00,56.7,38.4,29.94,North,-999,-999.0,-999.0,50,0.00,,,0.00,HomebrewedOnLinux,2013-12-16 18:25:00,
2013-12-16 13:30:00,57.0,38.6,29.94,North,-999,-999.0,-999.0,50,0.00,,,0.00,HomebrewedOnLinux,2013-12-16 18:30:00,
2013-12-16 13:35:00,57.2,38.3,29.94,North,-999,-999.0,-999.0,49,0.00,,,0.00,HomebrewedOnLinux,2013-12-16 18:35:00,
2013-12-16 13:45:00,57.6,39.0,29.94,North,-999,-999.0,-999.0,50,0.00,,,0.00,HomebrewedOnLinux,2013-12-16 18:45:00,
2013-12-16 13:50:00,57.6,38.4,29.94,North,-999,-999.0,-999.0,49,0.00,,,0.00,HomebrewedOnLinux,2013-12-16 18:50:00,
2013-12-16 13:55:00,57.9,38.6,29.91,North,-999,-999.0,-999.0,48,0.00,,,0.00,HomebrewedOnLinux,2013-12-16 18:55:00,
2013-12-16 14:00:00,57.9,38.9,29.91,North,-999,-999.0,-999.0,49,0.00,,,0.00,HomebrewedOnLinux,2013-12-16 19:00:00,
2013-12-16 14:05:00,58.1,38.9,29.91,North,-999,-999.0,-999.0,49,0.00,,,0.00,HomebrewedOnLinux,2013-12-16 19:05:00,
2013-12-16 14:10:00,58.3,38.9,29.91,North,-999,-999.0,-999.0,48,0.00,,,0.00,HomebrewedOnLinux,2013-12-16 19:10:00,
2013-12-16 14:15:00,58.6,38.9,29.91,North,-999,-999.0,-999.0,48,0.00,,,0.00,HomebrewedOnLinux,2013-12-16 19:15:00,
2013-12-16 14:20:00,58.8,38.9,29.91,North,-999,-999.0,-999.0,47,0.00,,,0.00,HomebrewedOnLinux,2013-12-16 19:20:00,
2013-12-16 14:25:00,58.6,39.5,29.91,North,-999,-999.0,-999.0,49,0.00,,,0.00,HomebrewedOnLinux,2013-12-16 19:25:00,
2013-12-16 14:30:00,58.5,38.8,29.91,North,-999,-999.0,-999.0,48,0.00,,,0.00,HomebrewedOnLinux,2013-12-16 19:30:00,
2013-12-16 14:35:00,58.5,39.1,29.91,North,-999,-999.0,-999.0,48,0.00,,,0.00,HomebrewedOnLinux,2013-12-16 19:35:00,
2013-12-16 14:40:00,58.3,38.6,29.91,North,-999,-999.0,-999.0,48,0.00,,,0.00,HomebrewedOnLinux,2013-12-16 19:40:00,
2013-12-16 14:45:00,58.3,37.8,29.91,North,-999,-999.0,-999.0,46,0.00,,,0.00,HomebrewedOnLinux,2013-12-16 19:45:00,
2013-12-16 14:50:00,58.3,38.1,29.91,North,-999,-999.0,-999.0,47,0.00,,,0.00,HomebrewedOnLinux,2013-12-16 19:50:00,
2013-12-16 14:55:00,58.5,37.6,29.91,North,-999,-999.0,-999.0,46,0.00,,,0.00,HomebrewedOnLinux,2013-12-16 19:55:00,
2013-12-16 15:00:00,58.3,37.6,29.91,North,-999,-999.0,-999.0,46,0.00,,,0.00,HomebrewedOnLinux,2013-12-16 20:00:00,
2013-12-16 15:05:00,58.1,37.8,29.91,North,-999,-999.0,-999.0,47,0.00,,,0.00,HomebrewedOnLinux,2013-12-16 20:05:00,
2013-12-16 15:10:00,58.1,37.8,29.91,North,-999,-999.0,-999.0,47,0.00,,,0.00,HomebrewedOnLinux,2013-12-16 20:10:00,
2013-12-16 15:15:00,58.1,37.3,29.91,North,-999,-999.0,-999.0,46,0.00,,,0.00,HomebrewedOnLinux,2013-12-16 20:15:00,
2013-12-16 15:20:00,58.3,37.4,29.91,North,-999,-999.0,-999.0,46,0.00,,,0.00,HomebrewedOnLinux,2013-12-16 20:20:00,
2013-12-16 15:25:00,57.9,37.3,29.91,North,-999,-999.0,-999.0,46,0.00,,,0.00,HomebrewedOnLinux,2013-12-16 20:25:00,
2013-12-16 15:30:00,58.1,37.1,29.91,North,-999,-999.0,-999.0,45,0.00,,,0.00,HomebrewedOnLinux,2013-12-16 20:30:00,
2013-12-16 15:35:00,58.1,37.1,29.91,North,-999,-999.0,-999.0,45,0.00,,,0.00,HomebrewedOnLinux,2013-12-16 20:35:00,
2013-12-16 15:40:00,57.7,37.0,29.91,North,-999,-999.0,-999.0,46,0.00,,,0.00,HomebrewedOnLinux,2013-12-16 20:40:00,
2013-12-16 15:50:00,57.7,36.7,29.91,North,-999,-999.0,-999.0,45,0.00,,,0.00,HomebrewedOnLinux,2013-12-16 20:50:00,
2013-12-16 15:55:00,57.7,36.5,29.91,North,-999,-999.0,-999.0,45,0.00,,,0.00,HomebrewedOnLinux,2013-12-16 20:55:00,
2013-12-16 16:00:00,57.6,36.5,29.91,North,-999,-999.0,-999.0,45,0.00,,,0.00,HomebrewedOnLinux,2013-12-16 21:00:00,
2013-12-16 16:05:00,57.4,36.8,29.91,North,-999,-999.0,-999.0,46,0.00,,,0.00,HomebrewedOnLinux,2013-12-16 21:05:00,
2013-12-16 16:10:00,57.2,36.3,29.91,North,-999,-999.0,-999.0,45,0.00,,,0.00,HomebrewedOnLinux,2013-12-16 21:10:00,
2013-12-16 16:15:00,57.0,36.6,29.91,North,-999,-999.0,-999.0,46,0.00,,,0.00,HomebrewedOnLinux,2013-12-16 21:15:00,
2013-12-16 16:20:00,56.7,36.7,29.91,North,-999,-999.0,-999.0,47,0.00,,,0.00,HomebrewedOnLinux,2013-12-16 21:20:00,
2013-12-16 16:25:00,56.8,36.7,29.94,North,-999,-999.0,-999.0,47,0.00,,,0.00,HomebrewedOnLinux,2013-12-16 21:25:00,
2013-12-16 16:30:00,56.7,36.7,29.94,North,-999,-999.0,-999.0,47,0.00,,,0.00,HomebrewedOnLinux,2013-12-16 21:30:00,
2013-12-16 16:35:00,56.1,36.8,29.94,North,-999,-999.0,-999.0,48,0.00,,,0.00,HomebrewedOnLinux,2013-12-16 21:35:00,
2013-12-16 16:40:00,55.8,36.8,29.91,North,-999,-999.0,-999.0,49,0.00,,,0.00,HomebrewedOnLinux,2013-12-16 21:40:00,
2013-12-16 16:45:00,55.6,36.7,29.91,North,-999,-999.0,-999.0,49,0.00,,,0.00,HomebrewedOnLinux,2013-12-16 21:45:00,
2013-12-16 16:50:00,55.4,36.6,29.91,North,-999,-999.0,-999.0,49,0.00,,,0.00,HomebrewedOnLinux,2013-12-16 21:50:00,
2013-12-16 16:55:00,55.4,36.5,29.94,North,-999,-999.0,-999.0,49,0.00,,,0.00,HomebrewedOnLinux,2013-12-16 21:55:00,
2013-12-16 17:00:00,55.4,36.1,29.94,North,-999,-999.0,-999.0,48,0.00,,,0.00,HomebrewedOnLinux,2013-12-16 22:00:00,
2013-12-16 17:10:00,54.5,36.1,29.94,North,-999,-999.0,-999.0,50,0.00,,,0.00,HomebrewedOnLinux,2013-12-16 22:10:00,
2013-12-16 17:20:00,53.8,36.2,29.94,North,-999,-999.0,-999.0,51,0.00,,,0.00,HomebrewedOnLinux,2013-12-16 22:20:00,
2013-12-16 17:25:00,53.4,36.3,29.94,North,-999,-999.0,-999.0,52,0.00,,,0.00,HomebrewedOnLinux,2013-12-16 22:25:00,
2013-12-16 17:30:00,53.1,36.3,29.94,North,-999,-999.0,-999.0,53,0.00,,,0.00,HomebrewedOnLinux,2013-12-16 22:30:00,
2013-12-16 17:35:00,52.9,36.6,29.94,North,-999,-999.0,-999.0,54,0.00,,,0.00,HomebrewedOnLinux,2013-12-16 22:35:00,
2013-12-16 17:40:00,52.5,36.7,29.94,North,-999,-999.0,-999.0,55,0.00,,,0.00,HomebrewedOnLinux,2013-12-16 22:40:00,
2013-12-16 17:45:00,52.2,36.7,29.94,North,-999,-999.0,-999.0,56,0.00,,,0.00,HomebrewedOnLinux,2013-12-16 22:45:00,
2013-12-16 17:50:00,51.8,36.7,29.94,North,-999,-999.0,-999.0,56,0.00,,,0.00,HomebrewedOnLinux,2013-12-16 22:50:00,
2013-12-16 17:55:00,51.6,36.9,29.94,North,-999,-999.0,-999.0,57,0.00,,,0.00,HomebrewedOnLinux,2013-12-16 22:55:00,
2013-12-16 18:00:00,51.4,36.7,29.94,North,-999,-999.0,-999.0,57,0.00,,,0.00,HomebrewedOnLinux,2013-12-16 23:00:00,
2013-12-16 18:05:00,51.1,36.6,29.94,North,-999,-999.0,-999.0,58,0.00,,,0.00,HomebrewedOnLinux,2013-12-16 23:05:00,
2013-12-16 18:10:00,50.7,36.5,29.94,North,-999,-999.0,-999.0,58,0.00,,,0.00,HomebrewedOnLinux,2013-12-16 23:10:00,
2013-12-16 18:15:00,50.5,36.3,29.94,North,-999,-999.0,-999.0,58,0.00,,,0.00,HomebrewedOnLinux,2013-12-16 23:15:00,
2013-12-16 18:20:00,50.4,36.1,29.94,North,-999,-999.0,-999.0,58,0.00,,,0.00,HomebrewedOnLinux,2013-12-16 23:20:00,
2013-12-16 18:25:00,50.2,36.3,29.94,North,-999,-999.0,-999.0,59,0.00,,,0.00,HomebrewedOnLinux,2013-12-16 23:25:00,
2013-12-16 18:30:00,50.0,36.3,29.94,North,-999,-999.0,-999.0,59,0.00,,,0.00,HomebrewedOnLinux,2013-12-16 23:30:00,
2013-12-16 18:35:00,49.6,36.3,29.94,North,-999,-999.0,-999.0,60,0.00,,,0.00,HomebrewedOnLinux,2013-12-16 23:35:00,
2013-12-16 18:40:00,49.5,36.5,29.94,North,-999,-999.0,-999.0,61,0.00,,,0.00,HomebrewedOnLinux,2013-12-16 23:40:00,
2013-12-16 18:45:00,49.3,36.4,29.94,North,-999,-999.0,-999.0,61,0.00,,,0.00,HomebrewedOnLinux,2013-12-16 23:45:00,
2013-12-16 18:50:00,49.3,36.4,29.94,North,-999,-999.0,-999.0,61,0.00,,,0.00,HomebrewedOnLinux,2013-12-16 23:50:00,
2013-12-16 18:55:00,49.1,36.2,29.97,North,-999,-999.0,-999.0,61,0.00,,,0.00,HomebrewedOnLinux,2013-12-16 23:55:00,
2013-12-16 19:00:00,48.9,36.3,29.97,North,-999,-999.0,-999.0,62,0.00,,,0.00,HomebrewedOnLinux,2013-12-17 00:00:00,
2013-12-16 19:05:00,48.7,36.3,29.97,North,-999,-999.0,-999.0,62,0.00,,,0.00,HomebrewedOnLinux,2013-12-17 00:05:00,
2013-12-16 19:10:00,48.7,36.4,29.97,North,-999,-999.0,-999.0,62,0.00,,,0.00,HomebrewedOnLinux,2013-12-17 00:10:00,
2013-12-16 19:15:00,48.6,36.3,29.97,North,-999,-999.0,-999.0,62,0.00,,,0.00,HomebrewedOnLinux,2013-12-17 00:15:00,
2013-12-16 19:20:00,48.6,36.5,29.97,North,-999,-999.0,-999.0,63,0.00,,,0.00,HomebrewedOnLinux,2013-12-17 00:20:00,
2013-12-16 19:25:00,48.4,36.4,29.97,North,-999,-999.0,-999.0,63,0.00,,,0.00,HomebrewedOnLinux,2013-12-17 00:25:00,
2013-12-16 19:30:00,48.2,36.2,29.97,North,-999,-999.0,-999.0,63,0.00,,,0.00,HomebrewedOnLinux,2013-12-17 00:30:00,
2013-12-16 19:35:00,48.2,36.4,29.97,North,-999,-999.0,-999.0,64,0.00,,,0.00,HomebrewedOnLinux,2013-12-17 00:35:00,
2013-12-16 19:45:00,47.8,36.7,29.94,North,-999,-999.0,-999.0,65,0.00,,,0.00,HomebrewedOnLinux,2013-12-17 00:45:00,
2013-12-16 19:50:00,47.8,36.7,29.94,North,-999,-999.0,-999.0,65,0.00,,,0.00,HomebrewedOnLinux,2013-12-17 00:50:00,
2013-12-16 19:55:00,47.8,36.3,29.97,North,-999,-999.0,-999.0,64,0.00,,,0.00,HomebrewedOnLinux,2013-12-17 00:55:00,
2013-12-16 20:05:00,47.7,36.5,29.97,North,-999,-999.0,-999.0,65,0.00,,,0.00,HomebrewedOnLinux,2013-12-17 01:05:00,
2013-12-16 20:10:00,47.5,36.5,29.97,North,-999,-999.0,-999.0,66,0.00,,,0.00,HomebrewedOnLinux,2013-12-17 01:10:00,
2013-12-16 20:15:00,47.5,36.7,29.97,North,-999,-999.0,-999.0,66,0.00,,,0.00,HomebrewedOnLinux,2013-12-17 01:15:00,
2013-12-16 20:20:00,47.3,36.5,29.97,North,-999,-999.0,-999.0,66,0.00,,,0.00,HomebrewedOnLinux,2013-12-17 01:20:00,
2013-12-16 20:25:00,47.3,36.5,29.97,North,-999,-999.0,-999.0,66,0.00,,,0.00,HomebrewedOnLinux,2013-12-17 01:25:00,
2013-12-16 20:30:00,47.1,36.7,29.97,North,-999,-999.0,-999.0,67,0.00,,,0.00,HomebrewedOnLinux,2013-12-17 01:30:00,
2013-12-16 20:35:00,47.1,36.7,29.97,North,-999,-999.0,-999.0,67,0.00,,,0.00,HomebrewedOnLinux,2013-12-17 01:35:00,
2013-12-16 20:40:00,47.1,37.0,29.97,North,-999,-999.0,-999.0,68,0.00,,,0.00,HomebrewedOnLinux,2013-12-17 01:40:00,
2013-12-16 20:45:00,47.1,37.0,29.97,North,-999,-999.0,-999.0,68,0.00,,,0.00,HomebrewedOnLinux,2013-12-17 01:45:00,
2013-12-16 20:55:00,46.9,36.9,29.94,North,-999,-999.0,-999.0,68,0.00,,,0.00,HomebrewedOnLinux,2013-12-17 01:55:00,
2013-12-16 21:00:00,46.9,36.9,29.94,North,-999,-999.0,-999.0,68,0.00,,,0.00,HomebrewedOnLinux,2013-12-17 02:00:00,
2013-12-16 21:05:00,46.8,36.8,29.94,North,-999,-999.0,-999.0,68,0.00,,,0.00,HomebrewedOnLinux,2013-12-17 02:05:00,
2013-12-16 21:10:00,46.8,37.0,29.97,North,-999,-999.0,-999.0,68,0.00,,,0.00,HomebrewedOnLinux,2013-12-17 02:10:00,
2013-12-16 21:15:00,46.8,37.1,29.97,North,-999,-999.0,-999.0,69,0.00,,,0.00,HomebrewedOnLinux,2013-12-17 02:15:00,
2013-12-16 21:20:00,46.6,36.6,29.97,North,-999,-999.0,-999.0,68,0.00,,,0.00,HomebrewedOnLinux,2013-12-17 02:20:00,
2013-12-16 21:25:00,46.6,36.6,29.97,North,-999,-999.0,-999.0,68,0.00,,,0.00,HomebrewedOnLinux,2013-12-17 02:25:00,
2013-12-16 21:30:00,46.4,36.5,29.97,North,-999,-999.0,-999.0,68,0.00,,,0.00,HomebrewedOnLinux,2013-12-17 02:30:00,
2013-12-16 21:35:00,46.2,36.6,29.97,North,-999,-999.0,-999.0,69,0.00,,,0.00,HomebrewedOnLinux,2013-12-17 02:35:00,
2013-12-16 21:45:00,46.0,36.4,29.97,North,-999,-999.0,-999.0,69,0.00,,,0.00,HomebrewedOnLinux,2013-12-17 02:45:00,
2013-12-16 21:50:00,46.0,36.5,29.97,North,-999,-999.0,-999.0,69,0.00,,,0.00,HomebrewedOnLinux,2013-12-17 02:50:00,
2013-12-16 21:55:00,45.9,36.3,29.97,North,-999,-999.0,-999.0,69,0.00,,,0.00,HomebrewedOnLinux,2013-12-17 02:55:00,
2013-12-16 22:05:00,45.9,36.6,29.97,North,-999,-999.0,-999.0,70,0.00,,,0.00,HomebrewedOnLinux,2013-12-17 03:05:00,
2013-12-16 22:10:00,45.5,36.5,29.97,North,-999,-999.0,-999.0,71,0.00,,,0.00,HomebrewedOnLinux,2013-12-17 03:10:00,
2013-12-16 22:20:00,45.0,36.5,29.97,North,-999,-999.0,-999.0,72,0.00,,,0.00,HomebrewedOnLinux,2013-12-17 03:20:00,
2013-12-16 22:25:00,44.6,36.1,29.97,North,-999,-999.0,-999.0,72,0.00,,,0.00,HomebrewedOnLinux,2013-12-17 03:25:00,
2013-12-16 22:30:00,44.2,36.1,29.97,North,-999,-999.0,-999.0,73,0.00,,,0.00,HomebrewedOnLinux,2013-12-17 03:30:00,
2013-12-16 22:35:00,44.1,36.0,29.97,North,-999,-999.0,-999.0,73,0.00,,,0.00,HomebrewedOnLinux,2013-12-17 03:35:00,
2013-12-16 22:40:00,44.1,36.0,29.97,North,-999,-999.0,-999.0,73,0.00,,,0.00,HomebrewedOnLinux,2013-12-17 03:40:00,
2013-12-16 22:45:00,43.9,35.8,29.97,North,-999,-999.0,-999.0,73,0.00,,,0.00,HomebrewedOnLinux,2013-12-17 03:45:00,
2013-12-16 22:50:00,43.7,36.0,29.97,North,-999,-999.0,-999.0,74,0.00,,,0.00,HomebrewedOnLinux,2013-12-17 03:50:00,
2013-12-16 22:55:00,43.5,35.7,29.97,North,-999,-999.0,-999.0,74,0.00,,,0.00,HomebrewedOnLinux,2013-12-17 03:55:00,
2013-12-16 23:00:00,43.3,35.5,29.97,North,-999,-999.0,-999.0,74,0.00,,,0.00,HomebrewedOnLinux,2013-12-17 04:00:00,
2013-12-16 23:05:00,43.2,35.4,29.97,North,-999,-999.0,-999.0,74,0.00,,,0.00,HomebrewedOnLinux,2013-12-17 04:05:00,
2013-12-16 23:10:00,43.2,35.4,29.97,North,-999,-999.0,-999.0,74,0.00,,,0.00,HomebrewedOnLinux,2013-12-17 04:10:00,
2013-12-16 23:15:00,43.2,35.4,29.97,North,-999,-999.0,-999.0,74,0.00,,,0.00,HomebrewedOnLinux,2013-12-17 04:15:00,
2013-12-16 23:25:00,42.8,35.1,29.97,North,-999,-999.0,-999.0,74,0.00,,,0.00,HomebrewedOnLinux,2013-12-17 04:25:00,
2013-12-16 23:30:00,42.8,35.1,29.97,North,-999,-999.0,-999.0,74,0.00,,,0.00,HomebrewedOnLinux,2013-12-17 04:30:00,
2013-12-16 23:35:00,42.6,34.9,29.97,North,-999,-999.0,-999.0,74,0.00,,,0.00,HomebrewedOnLinux,2013-12-17 04:35:00,
2013-12-16 23:45:00,42.4,35.1,29.97,North,-999,-999.0,-999.0,75,0.00,,,0.00,HomebrewedOnLinux,2013-12-17 04:45:00,
2013-12-16 23:50:00,42.3,34.9,29.97,North,-999,-999.0,-999.0,75,0.00,,,0.00,HomebrewedOnLinux,2013-12-17 04:50:00,
2013-12-16 23:55:00,42.3,34.9,29.97,North,-999,-999.0,-999.0,75,0.00,,,0.00,HomebrewedOnLinux,2013-12-17 04:55:00,